STARLINK-32618, 62045

Orbit data source: Space-Track

STARLINK-32618, 62045 is a payload satellite owned by SpaceX/Seattle (US) in LEO that was launched on Thu, 21 Nov 2024 UTC via an FALCON 9 launch vehicle from the Air Force Eastern Test Range (AFETR). Payloads include a variety of satellites, spacecraft, and rockets equipped with specific instruments for various scientific and technological missions. These include communications satellites like Starlink; space stations such as the ISS; scientific satellites like the Hubble; Earth observation satellites from companies like Planet Labs, Umbra, and HawkEye 360; GPS; miniature CubeSats for education and research; and military/defense satellites.

Loading next visibility...
STARLINK-32618 details
Identifier
62045, 2024-216P
Orbit
LEO
Last TLE update1 week ago
Origin
Flag of USSpaceX/Seattle (US)
ManufacturerSpaceX/Seattle
MissionOperational spacecraft
Bus & MotorSTARLINK V2M, Unknown motor
Mass730 kg wet, ~700 kg dry
Launch date (UTC)
2024-11-21 (1 month ago)
Launch vehicle
FALCON 9
Launch site
Air Force Eastern Test Range (AFETR)
Object type
Payload
Rocket body
Debris
Shape & HBRUnknown
Radar Cross SectionLarge (>1 m²)

Expand to show TLE details & history

TLE from 1 week ago
0 STARLINK-32618
1 62045U 24216P   24352.92435208 -.00093405  00000-0 -16313-2 0  9990
2 62045  42.9948 281.4896 0002124 257.7118 102.3504 15.50127049  5298
Epoch: 2024-12-17T22:11Z
Definitive object data (Epoch: 2024-12-17T22:11:04.019Z)
Latitude-0.00004°
Longitude-138.30313°
Altitude416.436 km
Speed7.663 km/s
True Right ascension18h 45m 57s
True Declination0° 00' 00"
Sunlit
Object was in daylight at TLE epoch
Visualization TLE readout
Latitude-18.5077°
Longitude151.11087°
Altitude423.331 km
Speed7.659 km/s
Apparent Right ascension17h 03m 49s
Apparent Declination-44° 28' 27"
Sunlit
Object is in daylight
Visualization observer readout
Local Sidereal Time09:38:53
Azimuth119.186° SE
Elevation-40.373°
Doppler factor1
Orbital elements
Apogee altitude419.763 km
Perigee altitude416.876 km
Semi-major axis6,796.457 km
Eccentricity0.0002124
Inclination42.9948°
RAAN281.4896°
Arg. of periapsis257.7118°
True anomaly102.37417°
Mean anomaly102.3504°
Eccentric anomaly102.36229°
Mean motion3.87364 °/min
BSTAR-0.0016313
Orbital period92.94 mins
Loading maneuver chart data...
Loading historical data...
Loading historical data...
Loading historical data...
Loading historical data...
Loading historical data...
Loading historical data...
Loading historical data...

STARLINK-32618 Visibility forecast

Observer location: undefined°, undefined

Span
Click to sort rows by Start time (UTC) header in descending order
Start Az.
Max El. time (UTC)
Max El. Az.
Max El.
End time (UTC)
End Az.
4 mins2024-12-26 18:20:43.373Z180.755° SSW2024-12-26 18:22:43.373Z139.685° SSE16.456°2024-12-26 18:24:43.373Z102.467° ESE
5 mins2024-12-26 19:57:43.373Z245.026° WSW2024-12-26 19:59:43.373Z156.538° SSE44.623°2024-12-26 20:02:43.373Z73.234° E
4 mins2024-12-26 21:35:43.373Z293.048° NW2024-12-26 21:37:43.373Z17.608° NNE35.942°2024-12-26 21:39:43.373Z67.837° E
4 mins2024-12-26 23:13:43.373Z296.649° NW2024-12-26 23:14:43.373Z318.487° NNW40.654°2024-12-26 23:17:43.373Z98.223° ESE
4 mins2024-12-27 00:50:43.373Z260.114° W2024-12-27 00:52:43.373Z205.927° SW25.562°2024-12-27 00:54:43.373Z157.771° S
|